Torna al catalogo

CZ-6A DEB

AttivoPO
NORAD 61395·DEBRIS·🇨🇳 China

Lanciato Aug 6, 2024 da Taiyuan Satellite Launch Center

Loading…

Prossimi Passaggi (prossime 24 ore)

TLE

AggiornatoSource: Space-Track

Epoca: Sep 14, 2026, 09:43 UTC

1 61395U 24140XL  26257.40555221  .00000230  00000-0  10468-3 0  9998
2 61395  88.9591 261.6655 0053900 245.6336 113.9221 14.17774413104679

Traccia CZ-6A DEB in tempo reale con AllMySat

Download on the App Store